Regional & State Weather Roundups


749 
ASCA44 KEWX 161420
RWRMX 
LATIN AMERICA AND CARIBBEAN REGIONAL WEATHER ROUNDUP
NATIONAL WEATHER SERVICE AUSTIN/SAN ANTONIO TX
900 AM CDT MON JUL 16 2018
NOTE: "FAIR" INDICATED FEW OR NO CLOUDS BELOW 12,000 FEET WITH NO
SIGNIFICANT WEATHER AND/OR OBSTRUCTIONS TO VISIBILITY.
BAJA CALIFORNIA
  
CITY           SKY/WX    TMP DP  RH WIND       PRES   REMARKS
LORETO         PTSUNNY   86  75  70 CALM      29.86R HX  95           
LA PAZ         MOSUNNY   75  66  73 S12       29.94                   
MEXICALI       CLOUDY    84  63  48 E3        29.84R                  
S.J. DEL CABO  MOSUNNY   81  63  54 N5        29.93R                  
TIJUANA        PTSUNNY   66  63  88 CALM      29.99R                  
NORTHWESTERN MEXICO
  
CITY           SKY/WX    TMP DP  RH WIND       PRES   REMARKS
CULIACAN       PTSUNNY   82  77  83 CALM      29.93R HX  91           
DURANGO        MOSUNNY   61  55  82 NW3       30.36R                  
GUAYMAS        MOSUNNY   88  75  66 CALM      29.85  HX  97           
HERMOSILLO     CLOUDY    86  73  66 E6        29.94R HX  93           
CD. JUAREZ     PTSUNNY   72  64  78 CALM      30.18                   
OBREGON        LGT RAIN  82  73  74 E7        29.89R                  
NORTHEASTERN MEXICO
  
CITY           SKY/WX    TMP DP  RH WIND       PRES   REMARKS
CHIHUAHUA      CLOUDY    72  57  60 CALM      30.23                   
MATAMOROS      MOSUNNY   84  77  79 S14       30.03  HX  94           
MONCLOVA       MOSUNNY   82  55  39 CALM      30.06                   
MONTERREY      MOSUNNY   77  68  73 E7        30.01R                  
NUEVO LAREDO   MOSUNNY   81  73  78 SE12      30.00R                  
PIEDRAS NEGRAS PTSUNNY   79  72  78 SE7       30.01                   
REYNOSA        MOSUNNY   82  75  78 S3        30.00R                  
SALTILLO       MOSUNNY   73  54  49 S14       30.25R                  
TORREON        CLOUDY    73  63  68 N5        30.19R                  
CD. VICTORIA   SUNNY     81  70  69 SE15      30.05R                  
WESTERN MEXICO
  
CITY           SKY/WX    TMP DP  RH WIND       PRES   REMARKS
AGUASCALIENTES MOSUNNY   59  55  88 N9        30.38R                  
COLIMA         PTSUNNY   77  70  78 N12       30.05S                  
DEL BAJIO      PTSUNNY   64  57  77 NE5       30.40R                  
GUADALAJARA    CLOUDY    64  61  88 CALM      30.28R                  
MANZANILLO       N/A    N/A N/A N/A MISG        N/A                   
MAZATLAN       CLOUDY    77  77 100 N3        29.95R                  
P. VALLARTA    CLOUDY    77  73  88 NE6       29.93R                  
URUAPAN        CLOUDY    64  59  82 CALM      30.26R                  
ZACATECAS      MOSUNNY   64  46  52 CALM      30.29F                  
CENTRAL MEXICO
  
CITY           SKY/WX    TMP DP  RH WIND       PRES   REMARKS
CUERNAVACA       N/A    N/A N/A N/A MISG        N/A                   
MEXICO CITY    PTSUNNY   59  54  82 E6        30.43R                  
MORELIA        CLOUDY    63  61  94 CALM      30.34R                  
POZA RICA      PTSUNNY   81  73  78 CALM      30.09R                  
PUEBLA         MOSUNNY   57  46  67 N3        30.43                   
QUERETARO      CLOUDY    61  57  88 E7        30.42R HAZE             
S. LUIS POTOSI PTSUNNY   61  57  88 CALM      30.36R                  
TAMPICO        PTSUNNY   82  77  83 MISG      30.05R HX  91           
TOLUCA         PTSUNNY   55  48  76 SE3       30.49R FOG              
SOUTHERN MEXICO
  
CITY           SKY/WX    TMP DP  RH WIND       PRES   REMARKS
ACAPULCO       MOSUNNY   82  72  69 N6        29.94R                  
B. DE HUATULCO MOSUNNY   82  66  57 CALM      29.95S                  
OAXACA         MOSUNNY   59  52  77 SE6       30.33S                  
P. ESCONDIDO   MOSUNNY   77  68  73 NE6       30.03R                  
VERACRUZ       PTSUNNY   81  75  83 CALM      30.05R                  
ZIHUATANEJO    PTSUNNY   81  75  83 CALM      29.94R                  
YUCATAN PENINSULA
  
CITY           SKY/WX    TMP DP  RH WIND       PRES   REMARKS
CAMPECHE       MOSUNNY   79  75  89 CALM      30.05R                  
CANCUN         MOSUNNY   84  75  74 E5        30.07R HX  92           
CHETUMAL       PTSUNNY   82  79  89 N5        30.05R HX  93           
CD. DEL CARMEN MOSUNNY   82  73  74 E15       30.03R                  
COZUMEL        MOSUNNY   84  75  74 SE6       30.05R HX  92           
MERIDA         MOSUNNY   82  75  78 E7        30.07R                  
MINATITLAN     PTSUNNY   79  75  89 CALM      30.00R                  
TAPACHULA      MOSUNNY   82  77  83 W2        29.91R HX  91           
TUX. GUTIERREZ MOSUNNY   75  70  83 CALM      30.07R                  
VILLAHERMOSA   SUNNY     79  72  78 E9        30.04R                  
CENTRAL AMERICA
  
CITY           SKY/WX    TMP DP  RH WIND       PRES   REMARKS
BELIZE CITY    TSTM      73  72  94 CALM      30.04                   
MANAGUA        MOSUNNY   82  73  74 E14       29.89R                  
CARIBBEAN
  
CITY           SKY/WX    TMP DP  RH WIND       PRES   REMARKS
ARUBA          MOSUNNY   86  73  66 E23       29.94S HX  93           
CURACAO        PTSUNNY   84  75  74 E18       29.97S HX  92           
KINGSTON       MOSUNNY   88  75  66 NW3       29.97S HX  97           
NASSAU         MOSUNNY   86  73  66 SE10      30.11S HX  93           
SAN JUAN       MOSUNNY   84  79  84 SE5       30.09S HX  96           
SANTO DOMINGO  MOSUNNY   86  75  70 E10       30.06S HX  95           
ST. CROIX      MOSUNNY   84  79  84 E17G25    30.10  HX  96           
ST. KITTS      MOSUNNY   84  75  74 E17       30.09S HX  92           
ST. MAARTEN    MOSUNNY   86  77  74 E17       30.09S HX  97           
ST. THOMAS     MOSUNNY   86  75  70 SE21      30.09  HX  95           
$$